GW1401 Weather Reports


Display with metric or nautical units.
time (UTC)temp
F
wind
direction
speed
MPH
gust
MPH
rain 1hr
in
rain 24hr
in
rain mn
in
humidity
%
barometer
mb
20260503013412 47 114 0.0 0.0 0.00 0.00 0.00 74 1022.2
20260503012909 47 111 0.0 0.0 0.00 0.00 0.00 74 1022.2
20260503012408 48 108 0.0 0.0 0.00 0.00 0.00 71 1022.1
20260503011903 48 110 0.0 0.0 0.00 0.00 0.00 72 1021.8
20260503011400 48 111 0.0 0.0 0.00 0.00 0.00 72 1021.8
20260503010857 48 114 0.0 1.0 0.00 0.00 0.00 73 1021.8
20260503010354 48 78 1.0 1.0 0.00 0.00 0.00 72 1021.8
20260503005851 48 115 0.0 1.0 0.00 0.00 0.00 74 1021.6
20260503005349 49 182 0.0 1.0 0.00 0.00 0.00 74 1021.7
20260503004844 49 153 0.0 0.0 0.00 0.00 0.00 71 1021.6
20260503004342 50 113 0.0 1.0 0.00 0.00 0.00 71 1021.6
20260503003839 50 115 0.0 0.0 0.00 0.00 0.00 67 1021.5
20260503003336 51 111 0.0 1.0 0.00 0.00 0.00 66 1021.5
20260503002833 52 115 0.0 0.0 0.00 0.00 0.00 66 1021.5
20260503002331 53 118 0.0 1.0 0.00 0.00 0.00 60 1021.4
20260503001827 53 121 0.0 0.0 0.00 0.00 0.00 57 1021.0
20260503001323 54 107 0.0 1.0 0.00 0.00 0.00 55 1021.1
20260503000820 54 118 0.0 1.0 0.00 0.00 0.00 53 1021.0
20260503000319 54 107 0.0 2.0 0.00 0.00 0.00 52 1021.0
20260502235815 55 129 0.0 2.0 0.00 0.00 0.00 53 1020.8
20260502235312 55 98 0.0 2.0 0.00 0.00 0.00 50 1021.0
20260502234809 55 128 1.0 2.0 0.00 0.00 0.00 51 1020.8
20260502234306 55 155 0.0 1.0 0.00 0.00 0.00 54 1020.7
20260502233802 56 121 0.0 2.0 0.00 0.00 0.00 55 1020.9
20260502233259 57 113 0.0 0.0 0.00 0.00 0.00 52 1020.7
20260502232755 57 120 0.0 1.0 0.00 0.00 0.00 50 1020.8
20260502232252 58 116 0.0 1.0 0.00 0.00 0.00 48 1020.7
20260502231748 57 160 1.0 2.0 0.00 0.00 0.00 48 1020.6
20260502231246 56 320 2.0 2.0 0.00 0.00 0.00 51 1020.8
20260502230745 56 197 1.0 2.0 0.00 0.00 0.00 52 1020.9
20260502230242 57 61 1.0 2.0 0.00 0.00 0.00 52 1020.9
20260502225739 58 139 1.0 7.0 0.00 0.00 0.00 49 1020.8
20260502225236 58 239 4.0 5.0 0.00 0.00 0.00 45 1020.8
20260502224732 58 136 1.0 2.0 0.00 0.00 0.00 48 1020.9
20260502224229 57 260 1.0 2.0 0.00 0.00 0.00 50 1021.0
20260502223726 59 159 1.0 5.0 0.00 0.00 0.00 49 1020.8
20260502223224 59 264 1.0 2.0 0.00 0.00 0.00 48 1020.7
20260502222721 59 183 2.0 6.0 0.00 0.00 0.00 45 1020.9
20260502222218 60 214 3.0 7.0 0.00 0.00 0.00 47 1021.0
20260502221714 60 76 1.0 2.0 0.00 0.00 0.00 48 1021.0
20260502221211 57 139 0.0 2.0 0.00 0.00 0.00 51 1020.7
20260502220707 57 110 0.0 1.0 0.00 0.00 0.00 55 1020.9
20260502220203 57 123 0.0 1.0 0.00 0.00 0.00 54 1020.7
20260502215701 58 112 1.0 3.0 0.00 0.00 0.00 51 1020.8
20260502215157 60 317 1.0 3.0 0.00 0.00 0.00 46 1020.6
20260502214655 60 120 0.0 1.0 0.00 0.00 0.00 45 1020.6
20260502214152 60 258 2.0 6.0 0.00 0.00 0.00 47 1020.6
20260502213649 59 91 2.0 3.0 0.00 0.00 0.00 47 1020.9
20260502213146 57 102 0.0 3.0 0.00 0.00 0.00 54 1020.9
20260502212645 56 164 0.0 1.0 0.00 0.00 0.00 51 1020.9
20260502212143 56 98 0.0 0.0 0.00 0.00 0.00 55 1020.9
20260502211638 56 128 0.0 1.0 0.00 0.00 0.00 55 1020.9
20260502211135 55 232 3.0 3.0 0.00 0.00 0.00 53 1021.0
20260502210633 55 132 1.0 1.0 0.00 0.00 0.00 54 1020.9
20260502210130 55 52 1.0 1.0 0.00 0.00 0.00 55 1021.1
20260502205626 54 139 1.0 2.0 0.00 0.00 0.00 56 1021.3
20260502205123 54 113 0.0 1.0 0.00 0.00 0.00 59 1021.2
20260502204620 54 146 1.0 2.0 0.00 0.00 0.00 57 1021.2
20260502204118 54 145 0.0 2.0 0.00 0.00 0.00 55 1021.1
20260502203614 54 97 1.0 2.0 0.00 0.00 0.00 57 1021.2
20260502203107 55 111 1.0 3.0 0.00 0.00 0.00 57 1021.1
20260502202602 55 132 0.0 3.0 0.00 0.00 0.00 57 1021.3
20260502202100 55 125 0.0 1.0 0.00 0.00 0.00 56 1021.2
20260502201556 55 245 5.0 10.0 0.00 0.00 0.00 55 1021.2
20260502201053 56 144 0.0 2.0 0.00 0.00 0.00 54 1021.1
20260502200548 56 130 0.0 0.0 0.00 0.00 0.00 52 1021.0
20260502200046 56 156 0.0 1.0 0.00 0.00 0.00 52 1021.2
20260502195544 56 147 1.0 2.0 0.00 0.00 0.00 51 1021.3
20260502195039 56 113 0.0 0.0 0.00 0.00 0.00 55 1021.2
20260502194536 56 130 0.0 2.0 0.00 0.00 0.00 51 1021.3
20260502194032 57 53 1.0 2.0 0.00 0.00 0.00 52 1021.2
20260502193530 56 133 0.0 0.0 0.00 0.00 0.00 56 1021.3
20260502193027 56 118 0.0 1.0 0.00 0.00 0.00 56 1021.3
20260502192522 55 187 0.0 1.0 0.00 0.00 0.00 55 1021.4
20260502192020 55 120 1.0 1.0 0.00 0.00 0.00 56 1021.5
20260502191517 54 137 0.0 2.0 0.00 0.00 0.00 56 1021.3
20260502191015 55 351 1.0 2.0 0.00 0.00 0.00 58 1021.5
20260502190512 55 88 1.0 2.0 0.00 0.00 0.00 55 1021.6
20260502190009 55 52 2.0 5.0 0.00 0.00 0.00 56 1021.6
20260502185504 55 125 0.0 6.0 0.00 0.00 0.00 56 1021.4
20260502185001 56 67 1.0 2.0 0.00 0.00 0.00 55 1021.7
20260502184456 56 135 0.0 1.0 0.00 0.00 0.00 53 1021.4
20260502183953 57 114 1.0 2.0 0.00 0.00 0.00 54 1021.7
20260502183449 57 161 1.0 3.0 0.00 0.00 0.00 52 1021.6
20260502182944 58 85 1.0 2.0 0.00 0.00 0.00 56 1021.5
20260502182440 56 102 0.0 2.0 0.00 0.00 0.00 57 1021.7
20260502181936 55 120 0.0 2.0 0.00 0.00 0.00 58 1021.7
20260502181435 55 121 0.0 1.0 0.00 0.00 0.00 59 1021.6
20260502180933 56 237 1.0 2.0 0.00 0.00 0.00 58 1021.8
20260502180430 56 130 0.0 1.0 0.00 0.00 0.00 56 1021.8
20260502170349 55 154 1.0 2.0 0.00 0.00 0.00 59 1022.1
20260502164336 57 241 2.0 3.0 0.00 0.00 0.00 56 1022.2
20260502163832 57 86 1.0 2.0 0.00 0.00 0.00 54 1022.3
20260502163328 56 146 0.0 1.0 0.00 0.00 0.00 56 1022.4
20260502162826 55 332 2.0 3.0 0.00 0.00 0.00 56 1022.5
20260502162322 57 358 2.0 5.0 0.00 0.00 0.00 55 1022.6
20260502161820 56 136 0.0 1.0 0.00 0.00 0.00 60 1022.6
20260502161315 55 142 1.0 2.0 0.00 0.00 0.00 59 1022.6
20260502160814 55 131 1.0 2.0 0.00 0.00 0.00 60 1022.5
20260502160312 54 190 1.0 2.0 0.00 0.00 0.00 61 1022.6
20260502152241 53 276 1.0 3.0 0.00 0.00 0.00 64 1022.4
20260502151739 54 199 1.0 3.0 0.00 0.00 0.00 63 1022.6
20260502151235 54 156 0.0 1.0 0.00 0.00 0.00 60 1022.6
20260502150733 53 133 0.0 2.0 0.00 0.00 0.00 63 1022.5
20260502150230 54 127 0.0 1.0 0.00 0.00 0.00 62 1022.7
20260502130618 47 127 0.0 0.0 0.00 0.00 0.00 80 1022.3
20260502130116 46 44 1.0 1.0 0.00 0.00 0.00 81 1022.1
20260502123602 44 115 0.0 0.0 0.00 0.00 0.00 91 1022.0
20260502123058 44 111 0.0 0.0 0.00 0.00 0.00 92 1022.2
20260502122554 44 118 0.0 1.0 0.00 0.00 0.00 92 1022.2
20260502122052 43 91 0.0 1.0 0.00 0.00 0.00 93 1022.3
20260502121549 43 125 0.0 0.0 0.00 0.00 0.00 94 1022.2
20260502121047 43 118 0.0 0.0 0.00 0.00 0.00 95 1022.0
20260502120542 43 139 0.0 1.0 0.00 0.00 0.00 96 1022.1
20260502115538 42 133 0.0 1.0 0.00 0.00 0.00 99 1021.9
20260502115033 42 124 0.0 1.0 0.00 0.00 0.00 99 1021.9
20260502114530 42 99 0.0 0.0 0.00 0.00 0.00 99 1021.7
20260502114027 42 111 0.0 0.0 0.00 0.00 0.00 99 1021.6
20260502113525 42 110 0.0 0.0 0.00 0.00 0.00 99 1021.6
20260502113023 42 110 0.0 0.0 0.00 0.00 0.00 99 1021.4
20260502112521 42 136 0.0 0.0 0.00 0.00 0.00 99 1021.4
20260502112018 41 119 0.0 0.0 0.00 0.00 0.00 99 1021.5
20260502111515 41 115 0.0 0.0 0.00 0.00 0.00 99 1021.4
20260502111013 41 119 0.0 0.0 0.00 0.00 0.00 99 1021.6
20260502110510 41 113 0.0 0.0 0.00 0.00 0.00 99 1021.3
20260502110008 41 112 0.0 0.0 0.00 0.00 0.00 99 1021.3
20260502105504 40 130 0.0 0.0 0.00 0.00 0.00 99 1021.3
20260502105002 40 112 0.0 0.0 0.00 0.00 0.00 99 1021.4
20260502104459 40 114 0.0 0.0 0.00 0.00 0.00 99 1021.4
20260502103956 40 88 0.0 0.0 0.00 0.00 0.00 99 1021.0
20260502103454 40 118 0.0 0.0 0.00 0.00 0.00 99 1021.1
20260502102951 40 117 0.0 0.0 0.00 0.00 0.00 99 1021.3
20260502102448 40 116 0.0 0.0 0.00 0.00 0.00 99 1021.4
20260502101944 39 118 0.0 0.0 0.00 0.00 0.00 99 1021.6
20260502101443 39 112 0.0 0.0 0.00 0.00 0.00 99 1021.3
20260502100941 39 101 0.0 0.0 0.00 0.00 0.00 99 1021.2
20260502100439 40 112 0.0 0.0 0.00 0.00 0.00 99 1021.2
20260502091414 40 127 0.0 0.0 0.00 0.00 0.00 99 1021.2
20260502090911 40 113 0.0 0.0 0.00 0.00 0.00 99 1021.4
20260502090408 39 116 0.0 0.0 0.00 0.00 0.00 99 1021.2
20260502071302 38 111 0.0 0.0 0.00 0.00 0.00 99 1020.9
20260502070801 38 111 0.0 0.0 0.00 0.00 0.00 99 1020.9
20260502070258 38 111 0.0 0.0 0.00 0.00 0.00 99 1021.0
20260502065757 38 111 0.0 0.0 0.00 0.00 0.00 99 1020.9
20260502065254 38 111 0.0 0.0 0.00 0.00 0.00 99 1020.9
20260502064752 39 111 0.0 0.0 0.00 0.00 0.00 99 1021.1
20260502064250 39 111 0.0 0.0 0.00 0.00 0.00 99 1021.3
20260502063747 39 111 0.0 0.0 0.00 0.00 0.00 99 1021.2
20260502063245 39 111 0.0 0.0 0.00 0.00 0.00 99 1021.2
20260502062742 39 111 0.0 0.0 0.00 0.00 0.00 99 1021.2
20260502062239 39 111 0.0 0.0 0.00 0.00 0.00 99 1021.3
20260502061738 39 111 0.0 0.0 0.00 0.00 0.00 99 1021.2
20260502061235 39 111 0.0 0.0 0.00 0.00 0.00 99 1021.1
20260502060730 39 111 0.0 0.0 0.00 0.00 0.00 99 1021.2
20260502060226 39 111 0.0 0.0 0.00 0.00 0.00 99 1021.3
20260502055725 39 114 0.0 0.0 0.00 0.00 0.00 99 1021.2
20260502055222 39 102 0.0 0.0 0.00 0.00 0.00 99 1021.4
20260502054721 39 113 0.0 0.0 0.00 0.00 0.00 99 1021.4
20260502054218 39 112 0.0 0.0 0.00 0.00 0.00 99 1021.5
20260502053715 39 114 0.0 0.0 0.00 0.00 0.00 99 1021.5
20260502053212 39 116 0.0 0.0 0.00 0.00 0.00 99 1021.4
20260502052711 39 114 0.0 0.0 0.00 0.00 0.00 99 1021.5
20260502052209 39 117 0.0 0.0 0.00 0.00 0.00 99 1021.5
20260502051706 40 118 0.0 0.0 0.00 0.00 0.00 99 1021.6
20260502051204 40 123 0.0 0.0 0.00 0.00 0.00 99 1021.9
20260502050700 40 135 0.0 0.0 0.00 0.00 0.00 99 1021.7
20260502050157 40 116 0.0 0.0 0.00 0.00 0.00 99 1021.7
20260502045654 40 116 0.0 0.0 0.00 0.00 0.00 99 1021.6
20260502045151 40 121 0.0 0.0 0.00 0.00 0.00 99 1021.7
20260502044647 40 111 0.0 0.0 0.00 0.00 0.00 99 1021.5
20260502044144 40 117 0.0 0.0 0.00 0.00 0.00 99 1021.5
20260502043642 40 117 0.0 0.0 0.00 0.00 0.00 98 1021.5
20260502043139 40 117 0.0 0.0 0.00 0.00 0.00 98 1021.4
20260502042638 40 117 0.0 0.0 0.00 0.00 0.00 98 1021.7
20260502042135 41 115 0.0 0.0 0.00 0.00 0.00 98 1021.7
20260502041633 41 115 0.0 0.0 0.00 0.00 0.00 98 1021.8
20260502041130 41 115 0.0 0.0 0.00 0.00 0.00 98 1021.8
20260502040626 41 115 0.0 0.0 0.00 0.00 0.00 97 1021.7
20260502040124 41 115 0.0 0.0 0.00 0.00 0.00 97 1021.9
20260502035620 41 115 0.0 0.0 0.00 0.00 0.00 97 1021.6
20260502035117 41 115 0.0 0.0 0.00 0.00 0.00 97 1021.9
20260502034615 41 115 0.0 0.0 0.00 0.00 0.00 96 1021.8
20260502034113 41 115 0.0 0.0 0.00 0.00 0.00 96 1021.6
20260502033611 41 115 0.0 0.0 0.00 0.00 0.00 96 1021.8
20260502033108 41 116 0.0 0.0 0.00 0.00 0.00 95 1021.7
20260502032604 42 115 0.0 0.0 0.00 0.00 0.00 95 1021.6
20260502032100 42 116 0.0 0.0 0.00 0.00 0.00 95 1021.5
20260502031558 42 116 0.0 0.0 0.00 0.00 0.00 94 1021.6
20260502031056 42 112 0.0 0.0 0.00 0.00 0.00 94 1021.4
20260502030555 43 112 0.0 0.0 0.00 0.00 0.00 93 1021.3
20260502030052 43 115 0.0 0.0 0.00 0.00 0.00 92 1021.6
20260502025549 43 115 0.0 0.0 0.00 0.00 0.00 92 1021.5
20260502025047 43 111 0.0 0.0 0.00 0.00 0.00 91 1021.6
20260502024545 43 115 0.0 0.0 0.00 0.00 0.00 90 1021.7
20260502024043 44 115 0.0 0.0 0.00 0.00 0.00 90 1021.7
20260502023540 44 113 0.0 0.0 0.00 0.00 0.00 89 1021.7
20260502023037 44 115 0.0 0.0 0.00 0.00 0.00 89 1021.6
20260502022534 44 115 0.0 0.0 0.00 0.00 0.00 89 1021.7
20260502022032 44 115 0.0 0.0 0.00 0.00 0.00 88 1021.6
20260502021529 44 115 0.0 0.0 0.00 0.00 0.00 87 1021.3
20260502021025 44 115 0.0 0.0 0.00 0.00 0.00 87 1021.4
20260502020523 45 115 0.0 0.0 0.00 0.00 0.00 87 1021.3
20260502020020 45 115 0.0 0.0 0.00 0.00 0.00 87 1021.2
20260502015518 46 115 0.0 0.0 0.00 0.00 0.00 87 1021.1
20260502015014 46 115 0.0 0.0 0.00 0.00 0.00 85 1020.7
20260502014511 46 115 0.0 0.0 0.00 0.00 0.00 84 1020.9
20260502014008 46 111 0.0 0.0 0.00 0.00 0.00 83 1020.7